CW4185 Weather Reports


time (UTC)temp
C
wind
direction
speed
KPH
gust
KPH
rain 1hr
cm
rain 24hr
cm
rain mn
cm
humidity
%
barometer
mb
20260509095146 22 161 4.8 11.3 0.00 0.00 0.00 91 1009.1
20260509094648 22 76 4.8 14.5 0.00 0.00 0.00 91 1009.1
20260509094146 22 128 12.9 16.1 0.00 0.00 0.00 91 1009.1
20260509093648 22 154 11.3 20.9 0.00 0.00 0.00 91 1009.1
20260509093149 22 152 8.0 11.3 0.00 0.00 0.00 91 1009.1
20260509092648 22 146 9.7 14.5 0.00 0.00 0.00 91 1009.1
20260509092147 22 125 6.4 12.9 0.00 0.00 0.00 90 1009.1
20260509091646 22 145 12.9 17.7 0.00 0.00 0.00 90 1009.1
20260509091147 22 149 11.3 14.5 0.00 0.00 0.00 90 1009.1
20260509090646 22 150 4.8 9.7 0.00 0.00 0.00 90 1009.5
20260509090151 22 144 6.4 14.5 0.00 0.00 0.00 90 1009.1
20260509085647 22 147 4.8 16.1 0.00 0.00 0.00 89 1009.5
20260509085148 22 163 4.8 16.1 0.00 0.00 0.00 89 1009.5
20260509084646 22 165 11.3 14.5 0.00 0.00 0.00 89 1009.8
20260509084146 22 150 8.0 12.9 0.00 0.00 0.00 89 1009.8
20260509083648 22 147 4.8 11.3 0.00 0.00 0.00 89 1009.8
20260509083148 22 146 8.0 12.9 0.00 0.00 0.00 90 1010.2
20260509082646 22 213 4.8 12.9 0.00 0.00 0.00 90 1010.2
20260509082147 22 150 6.4 11.3 0.00 0.00 0.00 89 1010.2
20260509081650 22 157 4.8 12.9 0.00 0.00 0.00 89 1010.5
20260509081150 22 158 4.8 9.7 0.00 0.00 0.00 89 1010.5
20260509080648 22 191 1.6 9.7 0.00 0.00 0.00 89 1010.5
20260509080148 22 117 6.4 11.3 0.00 0.00 0.00 89 1010.5
20260509075648 22 151 3.2 11.3 0.00 0.00 0.00 89 1010.8
20260509075148 22 153 4.8 11.3 0.00 0.00 0.00 89 1010.2
20260509074647 22 111 8.0 12.9 0.00 0.00 0.00 89 1010.2
20260509074147 22 118 4.8 9.7 0.00 0.00 0.00 88 1010.5
20260509073647 22 144 6.4 9.7 0.00 0.00 0.00 88 1011.2
20260509073148 22 160 6.4 8.0 0.00 0.00 0.00 88 1011.2
20260509072647 22 135 0.0 6.4 0.00 0.00 0.00 88 1011.2
20260509072148 22 328 3.2 4.8 0.00 0.00 0.00 89 1011.2
20260509071647 22 155 0.0 8.0 0.00 0.00 0.00 89 1011.2
20260509071147 22 158 0.0 6.4 0.00 0.00 0.00 90 1011.2
20260509070646 22 299 3.2 4.8 0.00 0.00 0.00 90 1011.2
20260509070150 22 50 1.6 8.0 0.00 0.00 0.00 90 1011.2
20260509065649 22 29 4.8 8.0 0.00 0.00 0.00 91 1011.5
20260509065146 22 85 0.0 4.8 0.00 0.00 0.00 91 1011.5
20260509064648 22 45 3.2 4.8 0.00 0.00 0.00 91 1011.5
20260509064147 22 2 3.2 6.4 0.00 0.00 0.00 93 1011.5
20260509063647 21 348 6.4 8.0 0.00 0.00 0.00 93 1011.9
20260509063147 21 323 8.0 8.0 0.00 0.00 0.00 94 1011.9
20260509062650 21 333 4.8 12.9 0.00 0.00 0.00 94 1011.9
20260509062146 21 337 6.4 8.0 0.00 0.00 0.00 93 1011.9
20260509061647 21 13 6.4 9.7 0.00 0.00 0.00 93 1011.5
20260509061149 21 8 3.2 6.4 0.00 0.00 0.00 93 1011.5
20260509060646 21 19 3.2 6.4 0.00 0.00 0.00 95 1011.5
20260509060149 21 336 0.0 4.8 0.00 0.00 0.00 96 1011.9
20260509055646 21 337 3.2 3.2 0.00 0.00 0.00 96 1011.9
20260509055147 21 306 1.6 4.8 0.00 0.00 0.00 97 1012.2
20260509054647 21 318 4.8 4.8 0.00 0.00 0.00 97 1012.2
20260509054146 21 315 4.8 6.4 0.00 0.00 0.00 96 1012.2
20260509053647 21 310 3.2 4.8 0.00 0.00 0.00 95 1011.9
20260509053147 21 269 0.0 1.6 0.00 0.00 0.00 95 1011.9
20260509052646 21 239 1.6 3.2 0.00 0.00 0.00 95 1011.9
20260509052148 21 251 1.6 3.2 0.00 0.00 0.00 95 1011.9
20260509051647 21 325 0.0 3.2 0.00 0.00 0.00 95 1011.9
20260509051147 21 269 1.6 4.8 0.00 0.00 0.00 95 1011.9
20260509050648 21 211 1.6 3.2 0.00 0.00 0.00 95 1011.9
20260509050147 21 216 1.6 3.2 0.00 0.00 0.00 95 1011.9
20260509045647 21 179 1.6 4.8 0.00 0.00 2.29 95 1011.9
20260509045147 21 214 1.6 6.4 0.00 0.00 2.29 95 1011.9
20260509044647 21 179 3.2 4.8 0.00 0.00 2.29 96 1011.9
20260509044148 21 180 4.8 6.4 0.00 0.00 2.29 96 1011.9
20260509043647 21 173 4.8 8.0 0.00 0.00 2.29 96 1011.9
20260509043149 21 157 6.4 8.0 0.00 0.00 2.29 96 1011.5
20260509042647 21 267 0.0 8.0 0.00 0.00 2.29 96 1011.5
20260509042147 21 174 4.8 9.7 0.00 0.00 2.29 96 1011.5
20260509041646 21 158 9.7 9.7 0.00 0.00 2.29 96 1011.5
20260509041146 21 172 3.2 11.3 0.00 0.00 2.29 96 1011.5
20260509040646 21 176 8.0 12.9 0.00 0.00 2.29 96 1011.2
20260509040146 21 175 6.4 12.9 0.00 0.00 2.29 96 1011.5
20260509035646 21 165 8.0 14.5 0.00 0.00 2.29 96 1011.2
20260509035147 21 160 8.0 16.1 0.00 0.00 2.29 96 1011.5
20260509034647 21 163 6.4 9.7 0.00 0.00 2.29 96 1011.2
20260509034148 21 181 4.8 12.9 0.00 0.00 2.29 96 1011.5
20260509033646 21 142 6.4 14.5 0.00 0.00 2.29 97 1011.2
20260509033147 21 182 3.2 8.0 0.00 0.00 2.29 96 1011.2
20260509032647 21 147 9.7 14.5 0.00 0.00 2.29 96 1011.2
20260509032146 21 146 11.3 11.3 0.00 0.00 2.29 96 1011.5
20260509031646 21 138 4.8 6.4 0.00 0.00 2.29 96 1011.5
20260509031147 21 178 0.0 6.4 0.00 0.00 2.29 96 1011.5
20260509030648 21 208 3.2 4.8 0.00 0.00 2.29 96 1011.5
20260509030146 21 255 0.0 4.8 0.00 0.00 2.29 96 1011.5
20260509025646 21 50 0.0 4.8 0.00 0.00 2.29 96 1011.9
20260509025146 21 333 1.6 4.8 0.00 0.00 2.29 97 1011.5
20260509024647 21 343 0.0 4.8 0.00 0.00 2.29 97 1011.2
20260509024147 21 173 0.0 4.8 0.00 0.00 2.29 97 1011.5
20260509023646 21 0 1.6 3.2 0.00 0.00 2.29 96 1011.5
20260509023146 21 210 1.6 3.2 0.00 0.00 2.29 96 1011.5
20260509022649 21 31 3.2 8.0 0.00 0.00 2.29 97 1011.2
20260509022150 21 62 3.2 8.0 0.00 0.00 2.29 97 1010.8
20260509021652 21 137 1.6 6.4 0.00 0.00 2.29 97 1010.8
20260509021146 21 116 4.8 9.7 0.00 0.00 2.29 97 1010.5
20260509020648 21 140 6.4 11.3 0.00 0.00 2.29 97 1010.8
20260509020148 21 35 1.6 6.4 0.00 0.00 2.29 97 1010.8
20260509015647 21 150 1.6 16.1 0.00 0.00 2.29 97 1010.8
20260509015149 21 148 8.0 8.0 0.00 0.00 2.29 98 1010.5
20260509014647 21 130 8.0 16.1 0.00 0.00 2.29 98 1010.5
20260509014148 20 125 3.2 17.7 0.00 0.00 2.29 98 1010.8
20260509013646 20 148 14.5 14.5 0.00 0.00 2.29 98 1010.8
20260509013147 20 161 8.0 12.9 0.00 0.00 2.29 98 1010.5
20260509012647 20 96 6.4 12.9 0.00 0.00 2.29 98 1010.5
20260509012148 20 108 3.2 11.3 0.00 0.00 2.29 98 1010.5
20260509011647 20 147 6.4 8.0 0.00 0.00 2.29 98 1010.5
20260509011149 20 58 4.8 8.0 0.00 0.00 2.29 97 1010.8
20260509010647 20 100 6.4 12.9 0.00 0.00 2.29 97 1010.8
20260509010149 20 142 4.8 14.5 0.00 0.00 2.29 97 1010.5
20260509005647 21 103 4.8 12.9 0.00 0.00 2.29 97 1010.5
20260509005147 21 100 1.6 16.1 0.00 0.00 2.29 97 1010.8
20260509004646 21 124 8.0 11.3 0.00 0.00 2.29 97 1010.8
20260509004148 21 164 6.4 9.7 0.00 0.00 2.29 97 1010.8
20260509003646 21 296 1.6 8.0 0.00 0.00 2.29 97 1011.2
20260509003147 21 103 3.2 8.0 0.00 0.00 2.29 97 1011.2
20260509002647 21 64 6.4 9.7 0.00 0.00 2.29 97 1011.2
20260509002148 21 67 4.8 8.0 0.00 0.00 2.29 97 1011.2
20260509001646 21 25 3.2 8.0 0.00 0.00 2.29 97 1011.2
20260509001147 21 24 3.2 4.8 0.00 0.00 2.29 97 1011.2
20260509000647 21 333 1.6 4.8 0.00 0.00 2.29 97 1011.5
20260509000147 21 355 3.2 8.0 0.00 0.00 2.29 97 1011.5
20260508235649 21 306 1.6 6.4 0.00 0.00 2.29 97 1011.9
20260508235151 20 333 4.8 4.8 0.00 0.00 2.29 97 1011.5
20260508234648 20 313 8.0 9.7 0.00 0.00 2.29 97 1011.5
20260508234147 20 19 4.8 9.7 0.00 0.00 2.29 97 1011.9
20260508233647 20 39 4.8 9.7 0.00 0.00 2.29 98 1011.9
20260508233148 20 349 4.8 8.0 0.00 0.00 2.29 98 1011.9
20260508232649 20 84 4.8 4.8 0.00 0.00 2.29 98 1011.5
20260508232146 20 346 8.0 11.3 0.00 0.00 2.29 98 1011.9
20260508231648 20 173 4.8 8.0 0.00 0.00 2.29 98 1011.5
20260508231147 20 347 4.8 8.0 0.00 0.00 2.29 98 1011.5
20260508230647 20 277 4.8 8.0 0.00 0.00 2.29 98 1011.5
20260508230148 20 59 6.4 11.3 0.00 0.00 2.29 98 1011.5
20260508225647 20 52 8.0 11.3 0.00 0.00 2.29 98 1011.5
20260508225149 20 135 9.7 12.9 0.05 0.00 2.29 98 1011.9
20260508224646 20 233 6.4 11.3 0.23 0.00 2.29 98 1011.9
20260508224147 20 200 1.6 14.5 0.61 0.00 2.26 98 1011.9
20260508223647 20 72 6.4 14.5 0.48 0.00 2.24 98 1011.9
20260508223146 20 39 3.2 14.5 0.13 0.00 2.16 98 1011.9
20260508222648 20 21 6.4 9.7 0.00 0.00 2.16 98 1011.9
20260508222147 20 289 3.2 12.9 0.00 0.00 2.16 98 1011.5
20260508221647 20 186 3.2 12.9 0.00 0.00 2.16 98 1011.9
20260508221151 20 10 8.0 16.1 0.00 0.00 2.16 98 1011.9
20260508220647 20 165 6.4 12.9 0.05 0.00 2.16 98 1011.9
20260508220147 20 64 11.3 17.7 0.18 0.00 2.16 98 1011.9
20260508215647 20 85 8.0 17.7 0.30 0.00 2.13 98 1011.9
20260508215148 20 73 12.9 20.9 0.13 0.00 2.11 98 1012.2
20260508214647 20 64 16.1 20.9 0.00 0.00 2.08 98 1012.5
20260508214147 20 40 6.4 14.5 0.00 0.00 2.08 98 1012.2
20260508213646 20 22 4.8 17.7 0.05 0.00 2.08 98 1012.9
20260508213148 20 49 11.3 22.5 0.05 0.00 2.08 98 1012.9
20260508212649 20 45 8.0 16.1 0.05 0.00 2.08 99 1012.9
20260508212146 20 19 9.7 22.5 0.18 0.00 2.08 99 1013.2
20260508211647 20 20 8.0 17.7 0.53 0.00 2.06 99 1013.2
20260508211148 20 56 9.7 22.5 1.50 0.00 2.06 99 1013.2
20260508210647 20 41 6.4 29.0 1.75 0.00 1.96 99 1013.2
20260508210148 20 20 17.7 20.9 1.45 0.00 1.80 98 1013.2
20260508205647 20 42 4.8 20.9 1.85 0.00 1.65 98 1013.9
20260508205149 20 342 19.3 20.9 2.95 0.00 1.55 98 1013.2
20260508204646 20 28 22.5 33.8 3.53 0.00 1.32 97 1012.5
20260508204146 20 30 20.9 29.0 4.85 0.00 1.04 97 1013.2
20260508203647 20 48 8.0 22.5 3.96 0.00 0.66 96 1012.5
20260508203146 20 28 14.5 29.0 0.79 0.00 0.13 93 1012.9
20260508202646 21 348 8.0 32.2 0.00 0.00 0.00 91 1012.5
20260508202147 21 37 14.5 43.5 0.00 0.00 0.00 90 1012.2
20260508201647 21 29 8.0 30.6 0.00 0.00 0.00 89 1011.9
20260508201147 21 58 12.9 38.6 0.00 0.00 0.00 89 1012.2
20260508200649 21 15 14.5 35.4 0.00 0.00 0.00 89 1011.9
20260508200147 22 43 14.5 30.6 0.00 0.00 0.00 88 1011.9
20260508195649 22 51 17.7 37.0 0.00 0.00 0.00 89 1012.2
20260508195149 22 35 14.5 27.4 0.00 0.00 0.00 88 1012.2
20260508194651 23 53 24.1 37.0 0.00 0.00 0.00 87 1012.2
20260508194148 23 52 16.1 29.0 0.00 0.00 0.00 87 1012.2
20260508193648 23 54 16.1 24.1 0.00 0.00 0.00 88 1012.5
20260508193146 23 27 14.5 20.9 0.00 0.00 0.00 88 1012.9
20260508192649 23 47 12.9 17.7 0.00 0.00 0.00 87 1012.9
20260508192153 23 69 11.3 19.3 0.00 0.00 0.00 87 1012.9
20260508191148 24 38 6.4 16.1 0.00 0.00 0.00 86 1012.9
20260508190647 24 50 6.4 22.5 0.00 0.00 0.00 85 1012.9
20260508190151 25 18 9.7 16.1 0.00 0.00 0.00 84 1012.9
20260508185646 25 34 9.7 17.7 0.00 0.00 0.00 84 1012.5
20260508185148 25 63 9.7 14.5 0.00 0.00 0.00 82 1012.5
20260508184647 25 58 8.0 22.5 0.00 0.00 0.00 82 1012.5
20260508184150 25 165 8.0 9.7 0.00 0.00 0.00 83 1012.2
20260508183649 25 129 8.0 19.3 0.00 0.00 0.00 83 1012.2
20260508183147 25 85 8.0 16.1 0.00 0.00 0.00 82 1012.2
20260508182647 25 81 11.3 12.9 0.00 0.00 0.00 83 1012.5
20260508182148 25 66 14.5 17.7 0.00 0.00 0.00 82 1012.5
20260508181650 25 59 9.7 14.5 0.00 0.00 0.00 81 1012.5
20260508181146 25 125 3.2 19.3 0.00 0.00 0.00 81 1012.5
20260508180648 25 114 4.8 16.1 0.00 0.00 0.00 81 1012.2
20260508180148 26 68 16.1 20.9 0.00 0.00 0.00 79 1012.5
20260508175649 26 62 6.4 16.1 0.00 0.00 0.00 80 1012.2
20260508175147 25 96 6.4 17.7 0.00 0.00 0.00 80 1012.2
20260508174652 25 39 6.4 17.7 0.00 0.00 0.00 80 1012.2
20260508174148 25 101 4.8 19.3 0.00 0.00 0.00 79 1012.5
20260508173647 25 79 12.9 16.1 0.00 0.00 0.00 80 1012.5
20260508173148 25 93 4.8 17.7 0.00 0.00 0.00 81 1012.9
20260508172647 25 72 14.5 20.9 0.00 0.00 0.00 80 1012.9
20260508172148 25 65 9.7 16.1 0.00 0.00 0.00 82 1012.9
20260508171648 25 60 12.9 16.1 0.00 0.00 0.00 82 1012.9
20260508171147 25 76 9.7 17.7 0.00 0.00 0.00 81 1012.9
20260508170650 25 43 6.4 20.9 0.00 0.00 0.00 81 1012.9
20260508170148 25 198 1.6 12.9 0.00 0.00 0.00 83 1012.9
20260508165649 25 165 3.2 14.5 0.00 0.00 0.00 81 1012.9
20260508165148 25 146 8.0 16.1 0.00 0.00 0.00 82 1013.2
20260508164651 25 171 4.8 11.3 0.00 0.00 0.00 83 1013.2
20260508164150 24 113 4.8 11.3 0.00 0.00 0.00 84 1012.9
20260508163651 24 93 8.0 14.5 0.00 0.00 0.00 84 1013.2
20260508162730 24 59 9.7 12.9 0.00 0.00 0.00 82 1013.2
20260508162149 23 137 6.4 12.9 0.00 0.00 0.00 85 1013.2
20260508161649 23 99 11.3 24.1 0.00 0.00 0.00 84 1013.2
20260508161149 23 71 9.7 20.9 0.00 0.00 0.00 85 1013.2
20260508160649 23 69 12.9 16.1 0.00 0.00 0.00 84 1013.2
20260508160149 23 66 14.5 17.7 0.00 0.00 0.00 85 1013.5
20260508155648 23 203 0.0 11.3 0.00 0.00 0.00 85 1013.5
20260508155148 23 75 8.0 8.0 0.00 0.00 0.00 85 1013.9
20260508154649 22 345 4.8 12.9 0.00 0.00 0.00 86 1013.9
20260508154149 22 69 6.4 16.1 0.00 0.00 0.00 86 1013.9
20260508153648 22 42 4.8 14.5 0.00 0.00 0.00 87 1013.9
20260508153148 22 62 11.3 16.1 0.00 0.00 0.00 87 1013.9
20260508152650 22 71 3.2 8.0 0.00 0.00 0.00 87 1013.9
20260508152149 22 138 3.2 12.9 0.00 0.00 0.00 88 1013.9
20260508151649 22 84 9.7 17.7 0.00 0.00 0.00 87 1013.5
20260508151147 22 91 6.4 9.7 0.00 0.00 0.00 87 1013.9
20260508150649 22 60 8.0 12.9 0.00 0.00 0.00 87 1013.5
20260508150151 22 73 8.0 17.7 0.00 0.00 0.00 88 1013.5
20260508145647 22 84 8.0 16.1 0.00 0.00 0.00 87 1013.9
20260508145149 22 55 8.0 14.5 0.00 0.00 0.00 86 1013.9
20260508144646 22 70 8.0 11.3 0.00 0.00 0.00 86 1013.9
20260508144146 22 65 11.3 17.7 0.00 0.00 0.00 85 1013.5
20260508143647 22 69 8.0 19.3 0.00 0.00 0.00 84 1013.5
20260508143147 22 64 11.3 20.9 0.00 0.00 0.00 85 1013.5
20260508142648 22 77 14.5 22.5 0.00 0.00 0.00 86 1013.5
20260508142148 22 61 14.5 14.5 0.00 0.00 0.00 85 1013.2
20260508141649 22 83 8.0 17.7 0.00 0.00 0.00 84 1013.5
20260508141149 22 63 16.1 17.7 0.00 0.00 0.00 85 1013.5
20260508140649 21 62 14.5 20.9 0.00 0.00 0.00 86 1013.5
20260508140150 21 78 9.7 11.3 0.00 0.00 0.00 86 1013.9
20260508135648 21 64 14.5 20.9 0.00 0.00 0.00 86 1013.5
20260508135147 21 62 11.3 14.5 0.00 0.00 0.00 86 1013.5
20260508134649 21 77 8.0 17.7 0.00 0.00 0.00 87 1013.5
20260508134149 21 82 8.0 22.5 0.00 0.00 0.00 87 1013.9
20260508133648 21 70 8.0 14.5 0.00 0.00 0.00 86 1013.9
20260508133149 21 65 9.7 19.3 0.00 0.00 0.00 86 1013.9
20260508132648 21 60 9.7 17.7 0.00 0.00 0.00 86 1013.9
20260508132149 21 37 11.3 12.9 0.00 0.00 0.00 87 1013.9
20260508131648 21 44 6.4 16.1 0.00 0.00 0.00 87 1013.9
20260508131148 21 49 9.7 19.3 0.00 0.00 0.00 87 1013.9
20260508130647 21 55 16.1 19.3 0.00 0.00 0.00 87 1013.9
20260508130151 21 40 6.4 9.7 0.00 0.00 0.00 88 1014.2
20260508125647 21 50 16.1 20.9 0.00 0.00 0.00 88 1014.2
20260508125148 21 24 11.3 19.3 0.00 0.00 0.00 88 1014.2
20260508124649 21 4 8.0 12.9 0.00 0.00 0.00 88 1014.6
20260508124146 21 40 14.5 22.5 0.00 0.00 0.00 87 1014.6
20260508123651 21 39 9.7 14.5 0.00 0.00 0.00 87 1014.6
20260508123149 21 348 6.4 9.7 0.00 0.00 0.00 87 1014.6
20260508122652 21 85 4.8 12.9 0.00 0.00 0.00 87 1014.2
20260508122149 21 41 9.7 16.1 0.00 0.00 0.00 88 1014.2
20260508121649 21 18 8.0 11.3 0.00 0.00 0.00 88 1014.2
20260508121149 21 54 11.3 14.5 0.00 0.00 0.00 88 1014.2
20260508120648 21 33 6.4 16.1 0.00 0.00 0.00 88 1014.2
20260508120149 21 29 0.0 19.3 0.00 0.00 0.00 87 1013.9
20260508115646 21 41 4.8 8.0 0.00 0.00 0.00 88 1013.2
20260508115147 21 27 4.8 17.7 0.00 0.00 0.00 88 1013.2
20260508114650 21 27 8.0 16.1 0.00 0.00 0.00 88 1013.5
20260508114148 21 57 6.4 12.9 0.00 0.00 0.00 88 1013.5
20260508113650 21 102 6.4 14.5 0.00 0.00 0.00 88 1013.5
20260508113149 21 67 12.9 14.5 0.00 0.00 0.00 89 1013.5
20260508112648 21 8 3.2 11.3 0.00 0.00 0.00 88 1013.9
20260508112149 21 52 1.6 9.7 0.00 0.00 0.00 89 1014.2
20260508111651 21 61 6.4 11.3 0.00 0.00 0.00 89 1014.2
20260508111150 21 0 4.8 9.7 0.00 0.00 0.00 89 1014.2
20260508110649 21 62 8.0 12.9 0.00 0.00 0.00 89 1014.6
20260508110149 21 22 6.4 11.3 0.00 0.00 0.00 89 1014.2
20260508105647 20 51 4.8 11.3 0.00 0.00 0.00 89 1013.9
20260508105147 21 59 6.4 16.1 0.00 0.00 0.00 89 1013.9
20260508104647 21 72 3.2 8.0 0.00 0.00 0.00 89 1013.9
20260508104150 21 30 3.2 11.3 0.00 0.00 0.00 89 1013.9
20260508103648 20 67 8.0 9.7 0.00 0.00 0.00 89 1013.5
20260508103148 20 72 9.7 11.3 0.00 0.00 0.00 89 1013.5
20260508102650 20 357 3.2 11.3 0.00 0.00 0.00 89 1013.5
20260508102150 20 67 8.0 12.9 0.00 0.00 0.00 89 1013.5
20260508101650 20 52 9.7 14.5 0.00 0.00 0.00 90 1013.2
20260508101149 20 68 14.5 17.7 0.00 0.00 0.00 90 1012.9
20260508100646 20 93 4.8 9.7 0.00 0.00 0.00 90 1012.9
20260508100150 21 59 9.7 11.3 0.00 0.00 0.00 90 1012.9
20260508095648 21 70 8.0 16.1 0.00 0.00 0.00 90 1012.9